Regional Weather Roundup
Issued by NWS

Home | Current Version | Previous Version | Text Only | Print | Product List | Glossary On
Versions: 1 2 3 4 5 6 7 8 9 10 11 12 13 14 15 16 17 18 19 20 21 22 23 24 25 26 27 28 29 30 31 32 33 34 35 36 37 38 39 40 41 42 43 44 45 46 47 48 49 50
023
ASUS45 KBOU 270307
RWRCO

WEATHER ROUNDUP FOR COLORADO
NATIONAL WEATHER SERVICE DENVER/BOULDER CO
900 PM MDT MON JUN 26 2017

NOTE: "FAIR" INDICATES FEW OR NO CLOUDS BELOW 12000 FEET WITH NO
SIGNIFICANT WEATHER AND/OR OBSTRUCTIONS TO VISIBILITY.

COZ001>005-013-030-031-270400-
...NORTHWEST COLORADO...

CITY           SKY/WX    TMP DP  RH WIND       PRES   REMARKS
CRAIG          FAIR      68  37  32 CALM      30.10R
HAYDEN         FAIR      72  34  25 S7        30.13S
MEEKER         FAIR      73  35  25 NW5       30.12S
RABBIT EARS PA FAIR      59  21  23 NW6       30.48S
STEAMBOAT SPGS FAIR      67  38  34 SE5       30.16S
WALDEN         FAIR      66  34  30 W5        30.28S
$$

COZ006>008-011-270400-
...WEST CENTRAL VALLEYS...

CITY           SKY/WX    TMP DP  RH WIND       PRES   REMARKS
GRAND JUNCTION FAIR      84  17   8 N6        29.94F
MONTROSE       FAIR      81  31  16 S6        30.06S
EAGLE          FAIR      73  35  25 NW5       30.16R
RIFLE          FAIR      80  24  12 SW6       30.03F
DELTA          FAIR      88  28  12 CALM      30.00S
NUCLA          FAIR      82  21  10 E5        30.11S
$$

COZ017>023-064>068-270400-
...SOUTHWEST COLORADO...

CITY           SKY/WX    TMP DP  RH WIND       PRES   REMARKS
DURANGO        FAIR      69  38  32 N6        30.18S
CORTEZ         FAIR      74  37  26 S8        30.10S
PAGOSA SPRINGS FAIR      64  31  29 N6        30.28F
TELLURIDE      FAIR      67  32  27 SE3       30.40S
WOLF CREEK PAS FAIR      50  28  43 S5        30.67R
$$

COZ009-010-012-014-032>034-037-058>063-270400-
...CENTRAL COLORADO...

CITY           SKY/WX    TMP DP  RH WIND       PRES   REMARKS
ASPEN          FAIR      64  34  32 SW10      30.25S
BUENA VISTA    FAIR      66  40  38 SE6       30.32R
COPPER MTN     FAIR      59  16  18 NW14G23   30.62S
BERTHOUD PASS  FAIR      43  32  65 SE18      30.65F
COTTONWOOD PAS FAIR      63  32  31 SE9G16    30.46R
GUNNISON       FAIR      67  36  31 CALM      30.25R
KREMMLING      NOT AVBL
LEADVILLE      MOCLDY    61  24  24 VRB7      30.43R
MONARCH PASS   FAIR      50  32  50 NE18      30.69S
SALIDA         FAIR      70  37  29 SE14G22   30.35R
SUNLIGHT       FAIR      59  18  20 NW5       30.52F
WILKERSON PASS LGT RAIN  52  30  43 E3G28     30.58F
$$

COZ069>075-270400-
...SAN LUIS VALLEY/SANGRE DE CRISTO MOUNTAINS...

CITY           SKY/WX    TMP DP  RH WIND       PRES   REMARKS
ALAMOSA        FAIR      60  42  51 SE9       30.27R
DEL NORTE      FAIR      60  44  55 SW5       30.30S
LA VETA PASS   FAIR      52  32  46 MISG      30.60F
SAGUACHE       FAIR      64  39  39 SE9       30.31S
$$

COZ035-036-038>040-270400-
...NORTHERN COLORADO FRONT RANGE...

CITY           SKY/WX    TMP DP  RH WIND       PRES   REMARKS
DENVER INTL AP FAIR      72  46  39 E10       30.10S
DMNS CITY PARK   N/A     76  44  32 E13G20    30.10S
AURORA         PTCLDY    72  46  38 SE13      30.12F
FRONT RANGE AP FAIR      73  46  38 SE12      30.12F
ERIE MUNI ARPT FAIR      76  42  29 E6        30.09S
BOULDER MUN AP FAIR      75  46  35 W3        30.10S
CENTENNIAL     FAIR      74  46  36 SE12      30.13S
BROOMFIELD     FAIR      77  43  29 E6        30.13S
FORT COLLINS   FAIR      77  46  33 SE14      30.10R
LONGMONT       FAIR      78  44  29 E3        30.11S
$$

COZ041-046-047-076>085-087-088-270400-
...PIKES PEAK/PALMER DIVIDE AND SOUTHERN FOOTHILLS...

CITY           SKY/WX    TMP DP  RH WIND       PRES   REMARKS
COLO. SPRINGS  FAIR      67  52  58 E18       30.20R
A. F. ACADEMY  FAIR      67  45  43 NE5       30.20R
SCHRIEVER AFB  FAIR      63  50  63 E12       30.22R
CHEYENNE MTN   FAIR      67  43  42 NW10      30.17S
ELLICOTT       FAIR     N/A N/A N/A SE17      30.19R
FALCON           N/A     62  49  61 SE12      30.26R
FORT CARSON    MOCLDY    68  42  38 E10       30.16R
LIMON          FAIR      70  48  45 SE9       30.15S
MONUMENT HILL  FAIR      63  45  51 SE9       30.25S
CANON CITY     CLEAR     72  46  40 W10       30.13R
WALSENBURG     FAIR      64  48  55 S9        30.20F
TRINIDAD       FAIR      69  43  38 N10       30.20R
$$

COZ042>045-048>051-090-091-270400-
...NORTHEAST COLORADO...

CITY           SKY/WX    TMP DP  RH WIND       PRES   REMARKS
GREELEY ARPT   FAIR      75  56  51 E12       30.09R
AKRON          FAIR      68  55  63 E16       30.14R
BURLINGTON     FAIR      67  59  75 E12       30.13R
WRAY           FAIR      68  59  73 E13       30.11R
YUMA           FAIR      64  52  63 E8        30.12R
STERLING       FAIR      70  59  68 SE13      30.08S
HOLYOKE        NOT AVBL
FORT MORGAN    FAIR      71  53  53 E20G26    30.11S
$$

COZ086-089-092>099-270400-
...SOUTHEAST COLORADO...

CITY           SKY/WX    TMP DP  RH WIND       PRES   REMARKS
PUEBLO         FAIR      74  46  36 S7        30.10R
LA JUNTA       FAIR      74  50  42 W17G25    30.10R
LAMAR          FAIR      78  57  48 E7        30.05R
SPRINGFIELD      N/A     67  54  63 SW7       30.10S
$$




USA.gov is the U.S. government's official web portal to all federal, state and local government web resources and services.